Miscellaneous Local Product
Issued by NWS North Platte, NE

Home | Current Version | Previous Version | Text Only | Print | Product List | Glossary On
Versions: 1 2 3 4 5 6 7 8 9 10 11 12 13 14 15 16 17 18 19 20 21 22 23 24 25 26 27 28 29 30 31 32 33 34 35 36 37 38 39 40 41 42 43 44 45 46 47 48 49 50
000
AXUS43 KLBF 222310
MISLBF


WESTERN AND NORTH CENTRAL NEBRASKA HOURLY WEATHER ROUNDUP
NATIONAL WEATHER SERVICE NORTH PLATTE NE
600 PM CDT SUN OCT 22 2017

NOTE: "FAIR" INDICATES FEW OR NO CLOUDS BELOW 12,000 FEET WITH NO
SIGNIFICANT WEATHER AND/OR OBSTRUCTIONS TO VISIBILITY.

NOTE: STATIONS NOT REPORTING VARIABLES SUCH AS SKY/WEATHER OR
PRESSURE ARE PROVIDED BY RAWS AND APRS NETWORKS AND ARE NOT UNDER
NATIONAL WEATHER SERVICE QUALITY CONTROL.

...OBSERVATIONS IN AND NEAR THE EASTERN PANHANDLE OF NEBRASKA...

CITY           SKY/WX    TMP DP  RH WIND       PRES   REMARKS
PINE RIDGE     CLEAR     67  30  25 W9        29.89F
GORDON         FAIR      65  30  27 W10       29.90F
CHADRON        CLOUDY    71  26  18 W21G31    29.90S
ALLIANCE       CLOUDY    63  30  28 W15       29.98R
SIDNEY         CLOUDY    64  29  26 NW12      30.03R
$$

...OBSERVATIONS IN NORTHERN NEBRASKA AND FAR SOUTHERN SOUTH DAKOTA...

CITY           SKY/WX    TMP DP  RH WIND       PRES   REMARKS
WINNER         FAIR      66  35  31 SW8       29.86S
VALENTINE      CLEAR     69  30  23 W8        29.89S
THEDFORD       CLOUDY    68  33  27 W7        29.93S
AINSWORTH      PTCLDY    66  36  33 SW3       29.90S
O`NEILL        CLEAR     62  35  35 SW6       29.91F
ORD            CLEAR     65  33  30 S8        29.93F
BROKEN BOW     CLEAR     64  35  34 SW8       29.94F
VALENTINE NWR    N/A     70  28  21 W9G18       N/A
HALSEY           N/A     69  32  25 SW3G16      N/A
BUTTE            N/A     66  34  31 MISG        N/A
CHAMBERS         N/A     60  32  35 CALM        N/A
EWING            N/A     63  34  34 SW6         N/A
$$

...OBSERVATIONS IN SOUTHWEST NEBRASKA AND FAR NORTHEAST COLORADO...

CITY           SKY/WX    TMP DP  RH WIND       PRES   REMARKS
HOLYOKE        FAIR      68  27  21 W8        30.01F
IMPERIAL       PTCLDY    70  26  19 W9        30.00F
OGALLALA       CLOUDY    69  29  22 W6        29.97S
NORTH PLATTE   CLOUDY    65  36  34 SW7       29.95F
MCCOOK         CLEAR     69  24  18 SW8       30.00F
LEXINGTON      CLEAR     67  29  24 SW8       29.97F
STAPLETON        N/A     66  36  33 SW3         N/A
GOTHENBURG       N/A     70  25  18 SW6         N/A
CALLAWAY         N/A     69  33  26 W12         N/A
$$

...OBSERVATIONS IN CENTRAL LINCOLN COUNTY AREA...

CITY           SKY/WX    TMP DP  RH WIND       PRES   REMARKS
N.P. AIRPORT   CLOUDY    65  36  34 SW7       29.95F
N.P. DOWNTOWN    N/A     66  36  33 CALM        N/A
N.P. SOUTHEAST   N/A     67  35  30 CALM        N/A
N.P. HILLCREST   N/A     66  34  31 SW3         N/A
$$

...SOME OBSERVATIONS FROM AROUND THE REGION...

CITY           SKY/WX    TMP DP  RH WIND       PRES   REMARKS
DENVER         CLOUDY    65  22  19 W9        30.10R
LIMON          SUNNY     67  25  20 NW7       30.11S
ASPEN          SUNNY     54  25  32 N8        30.41R
LARAMIE        CLOUDY    55  24  30 W18       30.20R
CASPER         SUNNY     59  27  29 SW21G35   30.04S
CHEYENNE       CLOUDY    60  22  23 W31G38    30.12S
SCOTTSBLUFF    CLOUDY    66  29  24 W20G31    29.99S
GRAND ISLAND   CLEAR     66  30  26 SW9       30.00F
OMAHA          PTCLDY    68  29  23 S9        30.01S
SIOUX FALLS    PTCLDY    65  30  27 SW9       29.89F
PIERRE         CLEAR     68  32  26 SW12      29.78F
RAPID CITY     CLEAR     68  29  23 W15       29.84S
BISMARCK       CLOUDY    63  33  32 W9        29.68S
KANSAS CITY    PTCLDY    61  42  49 SE7       30.09S
HILL CITY      CLEAR     70  21  15 SW8       30.05S
WICHITA        PTCLDY    66  37  34 S3        30.09F
DODGE CITY     CLEAR     70  18  13 SW13      30.08F
OKLAHOMA CITY  PTCLDY    66  33  29 NW5       30.14F
DALLAS         CLEAR     72  35  25 N13       30.11F
AMARILLO       SUNNY     65  30  27 SW8       30.18F
$$




USA.gov is the U.S. government's official web portal to all federal, state and local government web resources and services.